User: anonymous   Login
Location: Ostrava
(49.8330°N, 18.2830°E)
Time: 23:18:47
(UTC+02:00)
Language:

Cosmos 2219 Rocket - Orbit

View from above orbital plane
View from above orbital plane
View from above satellite
View from above satellite

Ground track
Ground track

The orbit data is extracted from the following two-line orbital elements,

1 22220U 92076B   15144.36354634  .00000254  00000-0  15174-3 0  9993
2 22220 071.0003 208.0455 0013662 334.2506 068.7543 14.16367398163894
Epoch (UTC): 24 May 2015 08:43:30
Eccentricity: 0.0013662
inclination: 71.0003°
perigee height: 828 km
apogee height: 847 km
right ascension of ascending node: 208.0455°
argument of perigee: 334.2506°
revolutions per day: 14.16367398
mean anomaly at epoch: 68.7543°
orbit number at epoch: 16389

The dashed part of the orbit path shows where the satellite is in the earth's shadow,  

DLR